OPS 4682 DEB, 38378

Orbit data source: Space-Track

OPS 4682 DEB, 38378 is space debris in LEO originally from a launch on Sat, 03 Apr 1965 UTC launched from the Air Force Western Test Range (AFWTR). Debris objects in space refer to the collection of defunct objects orbiting the Earth. Examples of debris include non-operational satellites, rocket bodies, and fragments generated from explosions, collisions, or faulty payload assembly.

Loading next visibility...
Identifier
38378, 1965-027CF
Orbit
LEO
Country
Flag of USUS
Related business
Manufacturer
Unknown
Mission
Spacecraft
Bus & Motor
Unknown
Mass
Unknown
Launch date (UTC)
1965-04-03 (61 years ago)
Launch vehicle
Unknown
Launch site
Air Force Western Test Range (AFWTR)
Object type
Payload
Rocket body
Debris
Shape & HBR
Unknown shape, 0.1 m
Radar Cross Section
Small (<0.1 m²)

Expand to show TLE details & history
Last TLE update: 1 day ago

TLE from 1 day ago
0 OPS 4682 DEB
1 38378U 65027CF  25352.19862139  .00000297  00000-0  91673-3 0  9992
2 38378  90.2423 335.3770 0034460 310.5693  49.2433 13.03233727595435
Epoch: 2025-12-18T04:46Z
TLE epoch observation values (Epoch: 2025-12-18T04:46:00.888Z)
Latitude
0.00003°
Longitude
176.81573°
Altitude
1,235.22 km
Speed
7.245 km/s
True Right ascension
22h 21m 30s
True Declination
0° 00' 00"
Sunlit
Object was in daylight at epoch
Visualization orbit readout
Latitude
Unknown
Longitude
Unknown
Altitude
Unknown
Speed
Unknown
Apparent Right ascension
Unknown
Apparent Declination
Unknown
Sunlit
N/A
Visualization observer readout
Local Sidereal Time
05:25:11
Azimuth
Unknown
Elevation
Unknown
Doppler factor
Unknown
Orbital elements
Apogee altitude
1,272.84 km
Perigee altitude
1,220.29 km
Semi-major axis
7,624.702 km
Eccentricity
0.00345
Inclination
90.2423°
RAAN
335.377°
Arg. of periapsis
310.5693°
True anomaly
49.54326°
Mean anomaly
49.2433°
Eccentric anomaly
49.3932°
Mean motion
3.25993 °/min
Orbital period
110.43 mins
BSTAR
0.00091673
Loading maneuver chart data...
Computing Atmospheric mass density...
Loading historical data...
Loading historical data...
Loading historical data...
Loading historical data...
Loading historical data...
Loading historical data...
Loading historical data...

Documentation

Showing up to 5 results
|